Overview Statistics Trail Chart Weather Telemetry Raw packets
 

This is the latest recevied weather packets stored in our database for station/object DB7GV-8. If no packets are shown the sender has not sent any weather packets the latest 10 day(s).

<< 8 9 10 11 12 13 14 >>
Time Temp. Humidity Pressure Rain* Wind** Luminosity Snow
1777517548 7.78° C 42% 1022.7 hPa - - - -
1777516643 8.33° C 41% 1022.8 hPa - - - -
1777515737 8.33° C 41% 1022.8 hPa - - - -
1777514832 8.33° C 40% 1022.7 hPa - - - -
1777513926 8.89° C 40% 1022.6 hPa - - - -
1777513021 8.89° C 40% 1022.8 hPa - - - -
1777512115 8.89° C 40% 1022.6 hPa - - - -
1777511210 9.44° C 39% 1022.4 hPa - - - -
1777510305 9.44° C 39% 1022.3 hPa - - - -
1777509399 10° C 39% 1022.3 hPa - - - -
1777508494 9.44° C 40% 1022.1 hPa - - - -
1777507588 9.44° C 41% 1022.2 hPa - - - -
1777506683 9.44° C 42% 1022.2 hPa - - - -
1777505777 9.44° C 43% 1022.2 hPa - - - -
1777504872 10° C 41% 1022.2 hPa - - - -
1777503967 10.56° C 39% 1022.3 hPa - - - -
1777503062 11.67° C 35% 1022.3 hPa - - - -
1777502155 11.67° C 36% 1022.2 hPa - - - -
1777501250 11.11° C 38% 1022.3 hPa - - - -
1777500345 11.67° C 37% 1022.2 hPa - - - -
1777499439 12.22° C 36% 1022.2 hPa - - - -
1777498534 12.22° C 36% 1022.1 hPa - - - -
1777497629 12.22° C 37% 1022 hPa - - - -
1777496724 12.22° C 39% 1021.9 hPa - - - -
1777495818 12.22° C 39% 1021.8 hPa - - - -

* Rain since midnight (hover to see other rain measurements)
** Current wind speed in m/s (hover to see current wind gust speed)